Weather History for Dublin Airport, Ireland

Change the Weather History Date:

Thursday, May 2, 2013

  Actual Average Record
Temperature  
Mean Temperature 45 °F -  
Max Temperature 59 °F 58 °F - ()
Min Temperature 31 °F 44 °F - ()
Degree Days  
Heating Degree Days 20    
Moisture  
Dew Point 40 °F    
Average Humidity 73    
Maximum Humidity 100    
Minimum Humidity 41    
Precipitation  
Precipitation 0.00 in 0.07 in - ()
Sea Level Pressure  
Sea Level Pressure 30.20 in    
Wind  
Wind Speed 7 mph ()    
Max Wind Speed 15 mph    
Max Gust Speed -    
Visibility 5.8 miles    
Events Fog    
T = Trace of Precipitation, MM = Missing Value Source: Averaged Metar Reports

Daily Weather History Graph

Daily Weather History Graph

Search for Another Location

Airport:

Trip Planner

Search our weather history database for the weather conditions in past years. The results will help you decide how hot, cold, wet, or windy it might be!

Date:

Astronomy

May. 02, 2013 Rise Set
Actual Time 5:48 AM IST 8:56 PM IST
Civil Twilight 5:07 AM IST 9:38 PM IST
Nautical Twilight 4:13 AM IST 10:32 PM IST
Astronomical Twilight 3:00 AM IST 11:47 PM IST
Moon 2:32 AM IST (5/2) 12:28 PM IST (5/2)
Length of Visible Light 16h 30m
Length of Day
15h 08m
Waning Gibbous, 50% of the Moon is Illuminated
May 2
Waning Gibbous
May 2
Last Quarter
May 10
New
May 18
First Quarter
May 25
Full

Hourly Weather History & Observations

Time (IST) Temp. Windchill Dew Point Humidity Pressure Visibility Wind Dir Wind Speed Gust Speed Precip Events Conditions
12:00 AM 37.4 °F 32.8 °F 35.6 °F 93% 30.30 in 6.2 mi NE 5.8 mph - N/A   Partly Cloudy
12:30 AM 37.4 °F - 35.6 °F 93% 30.30 in 5.0 mi Variable 2.3 mph - N/A   Partly Cloudy
1:00 AM 35 °F - 34 °F 92% 30.31 in 5 mi NE 2.2 mph - -   Mist
1:00 AM 35.6 °F - 33.8 °F 93% 30.30 in 5.0 mi Variable 2.3 mph - N/A   Partly Cloudy
1:30 AM 35.6 °F 32.8 °F 33.8 °F 93% 30.27 in 5.0 mi Variable 3.5 mph - N/A   Partly Cloudy
2:00 AM 33.8 °F 29.6 °F 33.8 °F 100% 30.27 in 5.0 mi ENE 4.6 mph - N/A   Partly Cloudy
2:30 AM 33.8 °F 30.8 °F 32.0 °F 93% 30.27 in 5.0 mi NE 3.5 mph - N/A   Partly Cloudy
3:00 AM 32.0 °F - 32.0 °F 100% 30.24 in 5.0 mi NE 2.3 mph - N/A Fog Fog
3:30 AM 32.0 °F - 32.0 °F 100% 30.24 in 5.0 mi East 2.3 mph - N/A Fog Fog
4:00 AM 32.0 °F 26.4 °F 32.0 °F 100% 30.24 in 5.0 mi East 5.8 mph - N/A Fog Fog
4:30 AM 35.6 °F 30.7 °F 35.6 °F 100% 30.24 in 5.0 mi East 5.8 mph - N/A Fog Fog
5:00 AM 35.6 °F 28.6 °F 35.6 °F 100% 30.24 in 4.3 mi East 9.2 mph - N/A Fog Fog
5:30 AM 37.4 °F 31.4 °F 37.4 °F 100% 30.21 in 3.1 mi ESE 8.1 mph - N/A   Mostly Cloudy
6:00 AM 42.8 °F 38.0 °F 42.8 °F 100% 30.21 in 3.1 mi ESE 8.1 mph - N/A   Mostly Cloudy
6:30 AM 42.8 °F 38.0 °F 42.8 °F 100% 30.21 in 5.0 mi ESE 8.1 mph - N/A   Mostly Cloudy
7:00 AM 44 °F - 43 °F 94% 30.25 in 7 mi SE 8.9 mph - -   Mist
7:00 AM 42.8 °F 37.5 °F 42.8 °F 100% 30.21 in 6.2 mi SE 9.2 mph - N/A   Mostly Cloudy
7:30 AM 44.6 °F 40.2 °F 42.8 °F 93% 30.24 in 6.2 mi SE 8.1 mph - N/A   Mostly Cloudy
8:00 AM 46.4 °F 41.5 °F 42.8 °F 87% 30.24 in 6.2 mi SE 10.4 mph - N/A   Mostly Cloudy
8:30 AM 48.2 °F - 42.8 °F 82% 30.24 in 6.2 mi SE 10.4 mph - N/A   Mostly Cloudy
9:00 AM 50.0 °F - 42.8 °F 76% 30.24 in 6.2 mi SSE 6.9 mph - N/A   Mostly Cloudy
9:30 AM 50.0 °F - 42.8 °F 76% 30.24 in 6.2 mi SSW 4.6 mph - N/A   Mostly Cloudy
10:00 AM 51.8 °F - 41.0 °F 67% 30.24 in 6.2 mi Variable 3.5 mph - N/A   Mostly Cloudy
10:30 AM 53.6 °F - 41.0 °F 62% 30.24 in 6.2 mi Variable 3.5 mph - N/A   Mostly Cloudy
11:00 AM 53.6 °F - 42.8 °F 67% 30.24 in 6.2 mi SW 8.1 mph - N/A   Mostly Cloudy
11:30 AM 55.4 °F - 42.8 °F 63% 30.21 in 6.2 mi SW 12.7 mph - N/A   Mostly Cloudy
12:00 PM 55.4 °F - 41.0 °F 58% 30.21 in 6.2 mi WSW 13.8 mph - N/A   Mostly Cloudy
12:30 PM 57.2 °F - 42.8 °F 59% 30.21 in 6.2 mi SW 15.0 mph - N/A   Mostly Cloudy
1:00 PM 58 °F - 40 °F 41% 30.22 in 31 mi SW 13.4 mph - -   Partly Cloudy
1:00 PM 59.0 °F - 41.0 °F 51% 30.21 in 6.2 mi SW 12.7 mph - N/A   Mostly Cloudy
1:30 PM 57.2 °F - 39.2 °F 51% 30.21 in 6.2 mi WSW 13.8 mph - N/A   Mostly Cloudy
2:00 PM 59.0 °F - 39.2 °F 48% 30.18 in 6.2 mi SW 13.8 mph - N/A   Mostly Cloudy
2:30 PM 59.0 °F - 39.2 °F 48% 30.18 in 6.2 mi SW 10.4 mph - N/A   Scattered Clouds
3:00 PM 59.0 °F - 39.2 °F 48% 30.18 in 6.2 mi SW 13.8 mph - N/A   Mostly Cloudy
3:30 PM 57.2 °F - 39.2 °F 51% 30.15 in 6.2 mi SW 15.0 mph - N/A   Mostly Cloudy
4:00 PM 57.2 °F - 41.0 °F 55% 30.15 in 6.2 mi SW 15.0 mph - N/A   Mostly Cloudy
4:30 PM 57.2 °F - 41.0 °F 55% 30.15 in 6.2 mi WSW 13.8 mph - N/A   Mostly Cloudy
5:00 PM 57.2 °F - 41.0 °F 55% 30.15 in 6.2 mi WSW 13.8 mph - N/A   Mostly Cloudy
5:30 PM 57.2 °F - 41.0 °F 55% 30.15 in 6.2 mi SW 11.5 mph - N/A   Mostly Cloudy
6:00 PM 57.2 °F - 39.2 °F 51% 30.15 in 6.2 mi SW 12.7 mph - N/A   Mostly Cloudy
6:30 PM 57.2 °F - 41.0 °F 55% 30.12 in 6.2 mi WSW 12.7 mph - N/A   Mostly Cloudy
7:00 PM 56 °F - 41 °F 46% 30.15 in 37 mi SW 13.4 mph - -   Mostly Cloudy
7:00 PM 55.4 °F - 41.0 °F 58% 30.12 in 6.2 mi SW 12.7 mph - N/A   Mostly Cloudy
7:30 PM 55.4 °F - 41.0 °F 58% 30.12 in 6.2 mi WSW 12.7 mph - N/A   Mostly Cloudy
8:00 PM 53.6 °F - 42.8 °F 67% 30.12 in 6.2 mi West 12.7 mph - N/A   Mostly Cloudy
8:30 PM 53.6 °F - 41.0 °F 62% 30.12 in 6.2 mi WSW 12.7 mph - N/A   Mostly Cloudy
9:00 PM 53.6 °F - 41.0 °F 62% 30.12 in 6.2 mi SW 9.2 mph - N/A   Mostly Cloudy
9:30 PM 53.6 °F - 41.0 °F 62% 30.12 in 6.2 mi SSW 8.1 mph - N/A   Mostly Cloudy
10:00 PM 53.6 °F - 41.0 °F 62% 30.12 in 6.2 mi SW 8.1 mph - N/A   Mostly Cloudy
10:30 PM 53.6 °F - 41.0 °F 62% 30.12 in 6.2 mi SW 9.2 mph - N/A   Mostly Cloudy
11:00 PM 53.6 °F - 41.0 °F 62% 30.12 in 6.2 mi SW 9.2 mph - N/A   Mostly Cloudy
11:30 PM 51.8 °F - 41.0 °F 67% 30.12 in 6.2 mi SW 9.2 mph - N/A   Mostly Cloudy